Location: Rancho Del Sol Observatory
(38.7214°N, 120.6350°W)
Time: 20:21:34
(UTC-08:00)

A-11 Canister half - Pass Details

Date: 06 February 2020
Orbit: 1517 x 1683 km, 47.2° (Epoch: 16 February)

Event Time Altitude Azimuth Distance (km) Brightness Sun altitude
Rises 17:34:20 0° 187° (S) 4,871 12.0 -1.7°
Reaches altitude 10° 17:38:24 10° 174° (S) 3,864 11.3 -2.4°
Maximum altitude 17:45:28 23° 127° (SE) 2,935 10.2 -3.8°
Drops below altitude 10° 17:52:23 10° 80° (E) 3,779 10.4 -5.0°
Enters shadow 17:53:58 - 74° (ENE) 4,150 10.5 -5.3°
Sets 17:56:15 0° 67° (ENE) 4,740 - -5.8°
